Regional Weather Roundup
Issued by NWS

Home | Current Version | Previous Version | Graphics & Text | Print | Product List | Glossary On
Versions: 1 2 3 4 5 6 7 8 9 10 11 12 13 14 15 16 17 18 19 20 21 22 23 24 25 26 27 28 29 30 31 32 33 34 35 36 37 38 39 40 41 42 43 44 45 46 47 48 49 50
000
ASUS43 KDMX 161201
RWRIA

WEATHER ROUNDUP FOR IOWA
NATIONAL WEATHER SERVICE DES MOINES IA
600 AM CST TUE JAN 16 2018

NOTE: "FAIR" INDICATES FEW OR NO CLOUDS BELOW 12,000 FEET WITH NO
SIGNIFICANT WEATHER AND/OR OBSTRUCTIONS TO VISIBILITY.

* - THESE STATIONS ARE NOT NWS STATIONS...THUS NOT UNDER NWS
QUALITY CONTROL.  THEY ALSO DO NOT REPORT WEATHER SUCH
AS PRECIPITATION OR FOG.

IAZ001>003-012>014-020>022-031>034-043>046-161300-
   NORTHWEST IOWA

CITY           SKY/WX    TMP DP  RH WIND       PRES   REMARKS
CARROLL *      CLOUDY    -4  -9  77 NW16      30.67R WCI -25
CHEROKEE *     CLOUDY    -6 -11  79 NW8       30.71R WCI -21
DENISON *      FLURRIES  -4  -9  77 N16       30.70S WCI -25
LE MARS *      CLOUDY    -2  -8  78 NW9       30.73R WCI -18
ORANGE CITY *  MOCLDY    -2  -8  78 N10G16    30.69R WCI -19
SHELDON *      CLOUDY    -6 -11  77 NW17      30.67S WCI -28
SIOUX CITY     CLOUDY    -2  -8  76 NW23      30.74R WCI -26
6HR MIN TEMP:  -3; 6HR MAX TEMP:  -2;

SPENCER        LGT SNOW  -6 -12  75 NW15      30.67R WCI -27
6HR MIN TEMP:  -9; 6HR MAX TEMP:  -5; 6HR PCP: TRACE;

STORM LAKE *   PTCLDY    -8 -13  77 NW15      30.64R WCI -29
$$

IAZ055>058-069>071-079>083-090>094-161300-
   SOUTHWEST IOWA

CITY           SKY/WX    TMP DP  RH WIND       PRES   REMARKS
ATLANTIC *     FLURRIES  -2  -9  71 N13G21    30.69R WCI -21
AUDUBON *      FLURRIES  -4  -9  77 NW9G16    30.67R WCI -20
CLARINDA *     FLURRIES  -2  -9  71 N10G18    30.74R WCI -19
COUNCIL BLFS * PTCLDY    -4  -8  84 NW16G23   30.70R WCI -25
CRESTON *      CLOUDY    -2  -9  71 NW21      30.65R WCI -25
HARLAN  *      CLOUDY    -4  -9  77 NW18      30.72S WCI -26
LAMONI         CLOUDY    -3 -10  72 NW14      30.63R WCI -22
6HR MIN TEMP:  -6; 6HR MAX TEMP:  -3;

RED OAK *      CLOUDY    -2  -8  78 NW12      30.72R WCI -20
SHENANDOAH *   CLOUDY    -2  -8  78 NW12      30.75R WCI -20
$$

IAZ047>049-059>061-072>074-084-161300-
   CENTRAL IOWA

CITY           SKY/WX    TMP DP  RH WIND       PRES   REMARKS
AMES           FLURRIES  -4  -9  79 NW18      30.65R WCI -26
6HR MIN TEMP:  -7; 6HR MAX TEMP:  -4; 6HR PCP: TRACE;

ANKENY *       LGT SNOW  -4  -9  77 NW15      30.67S WCI -25
BOONE *        CLOUDY    -6 -11  77 NW16G23   30.62S WCI -28
CHARITON *     FLURRIES  -4  -9  77 NW15G22   30.62R WCI -25
DES MOINES     LGT SNOW  -4 -10  75 NW13      30.65S BLWGSNOWWCI -23
6HR MIN TEMP:  -6; 6HR MAX TEMP:  -3; 6HR PCP: TRACE;

GRINNELL*      LGT SNOW  -3  -7  82 NW16G24   30.59S WCI -24
KNOXVILLE *    FLURRIES  -4 -13  65 NW15      30.61R WCI -25
MARSHALLTOWN   LGT SNOW  -2  -7  79 NW17      30.59S WCI -23
6HR MIN TEMP:  -8; 6HR MAX TEMP:  -2; 6HR PCP: TRACE;

NEWTON *       CLOUDY    -4  -9  77 NW14G21   30.62R HAZE    WCI -24
PELLA *        LGT SNOW  -3  -8  77 NW15      30.63S WCI -23
PERRY *        CLOUDY    -4 -11  73 NW14G20   30.68S WCI -24
$$

IAZ004>006-015-016-023>025-035-036-161300-
   NORTH CENTRAL IOWA

CITY           SKY/WX    TMP DP  RH WIND       PRES   REMARKS
ALGONA *       CLOUDY    -4 N/A N/A N13G22    30.63R HAZE    WCI -23
CLARION *      CLOUDY    -6  -9  84 NW16G22   30.63R WCI -28
ESTHERVILLE    LGT SNOW  -7 -11  83 NW17      30.65R FOG     WCI -30
6HR MIN TEMP: -10; 6HR MAX TEMP:  -7; 6HR PCP: TRACE;

FORT DODGE *   LGT SNOW  -5 -10  79 NW9       30.66R WCI -22
MASON CITY     CLOUDY    -4  -9  79 NW21      30.61R HAZE    WCI -28
6HR MIN TEMP:  -8; 6HR MAX TEMP:  -4; 6HR PCP: TRACE;

FOREST CITY *  LGT SNOW  -2  -8  78 N15G22    30.61R WCI -22
WEBSTER CITY * FLURRIES  -2  -9  71 NW17      30.62S WCI -24
IOWA FALLS *   FLURRIES  -1  -6  79 NW18      30.60S WCI -22
$$

IAZ007>011-017>019-026>030-037>042-050>054-066-161300-
   NORTHEAST IOWA

CITY           SKY/WX    TMP DP  RH WIND       PRES   REMARKS
CEDAR RAPIDS   FLURRIES   2  -4  76 NW13      30.54R WCI -15
6HR MIN TEMP:  -4; 6HR MAX TEMP:   2; 6HR PCP: TRACE;

CHARLES CITY * FLURRIES   1  -4  78 NW18      30.57R WCI -19
CLINTON *      FLURRIES   2  -2  83 W17       30.51R WCI -18
DECORAH *      FLURRIES   5   1  85 NW10      30.52R WCI -10
DUBUQUE          N/A      5   0  79 N10       30.47R WCI -10
6HR MIN TEMP:   1; 6HR MAX TEMP:   6; 6HR PCP: TRACE;

MONTICELLO *   CLOUDY     5   0  78 NW8       30.52R WCI  -8
OELWEIN *      CLOUDY     3   1  92 NW12G20   30.54R WCI -13
WATERLOO       CLOUDY     0  -7  72 NW15      30.58R WCI -19
6HR MIN TEMP:  -6; 6HR MAX TEMP:   0; 6HR PCP: TRACE;

$$

IAZ064-065-067-068-078-161300-
   EAST CENTRAL IOWA

CITY           SKY/WX    TMP DP  RH WIND       PRES   REMARKS
DAVENPORT      LGT SNOW N/A N/A N/A W18       30.53R
                                      6HR PCP: TRACE;

IOWA CITY      LGT SNOW   1  -6  72 NW9       30.59R WCI -14
6HR MIN TEMP:  -2; 6HR MAX TEMP:   1; 6HR PCP: TRACE;

MT. PLEASANT * LGT SNOW  -4 -11  71 NW12      30.59R WCI -22
MUSCATINE *    LGT SNOW   1  -6  71 NW12      30.59S WCI -15
QUAD CITIES    FLURRIES   2  -4  76 W10       30.54R WCI -14
6HR MIN TEMP:   0; 6HR MAX TEMP:   2; 6HR PCP: TRACE;

$$

IAZ062-063-075>077-085>089-095>099-161300-
   SOUTHEAST IOWA

CITY           SKY/WX    TMP DP  RH WIND       PRES   REMARKS
BURLINGTON     CLOUDY    -6 -13  71 NW9       30.57R WCI -23
6HR MIN TEMP:  -6; 6HR MAX TEMP:  -2;

FAIRFIELD *    MOCLDY    -4 -11  71 NW15G22   30.59R WCI -25
FORT MADISON * FLURRIES  -6 -11  77 NW10      30.58S WCI -23
KEOKUK *       MOCLDY    -6 -13  71 W8        30.60R WCI -21
OSKALOOSA *    LGT SNOW  -4  -9  78 NW15      30.62R WCI -25
OTTUMWA        CLOUDY    -4 -11  72 NW16      30.61R WCI -25
6HR MIN TEMP:  -6; 6HR MAX TEMP:  -4;

WASHINGTON *   CLOUDY    -2  -8  78 NW14      30.60R WCI -21
$$

ABBREVIATIONS USED IN REMARKS
   TC - TEMPERATURES IN CELSIUS
  WCI - WIND CHILL INDEX
   HX - HEAT INDEX
  VSB - VISIBILITY
$$





USA.gov is the U.S. government's official web portal to all federal, state and local government web resources and services.